Find Kosmos-1434

NORAD ID: 13766 Int'l Des: 1983-002 Owner: GUKOS Country: SU operational
LEOCIRCULAR

Live Position

Loading 3D Globe...

About Kosmos-1434

Description loading...

Upcoming Passes

Passes for default location (London). Set your location on the main map for personalized predictions.

Altitude History

Loading altitude history...

Two-Line Element Set

1 13766U 83002F 26105.15242080 -.00000015 00000-0 76811-5 0 9997
2 13766 74.0220 264.2576 0023644 329.6803 145.4574 12.53822399979179
Epoch: Apr 15, 2026 • Age: 9 hours

Current Status

Altitude 1459.2 km
Velocity 7.14 km/s
Sub-Earth Point 58.77°N, 106.21°W
Launch Date Jan 19, 1983
Age 43.2 years
Type other

Technical Details

Classification Payload
Mass 60.00 kg
Dry Mass 60.00 kg
Total Mass 60.00 kg
Length 0.80 m
Diameter 0.80 m
Span 0.80 m
Shape Poly
Manufacturer NPOPM
Bus Type Strela-1 11F625
Phase Status In Orbit
Owner/State GUKOS/SU

Most Searched